#timestamp,LO_Frequency,Hit,StdDev 
1552021215.4,286046997.8,N
1552021235.2,286046998.9,N
1552021255.1,286047000.0,N
1552021256.0,286047000.0,N
1552021275.8,286047002.7,N
1552021295.6,286047001.3,N
1552021315.5,286047006.0,N
1552021335.3,286047005.2,N
1552021355.2,286047005.2,N
1552021375.9,286047005.0,N
1552021395.7,286047006.6,N
1552021415.6,286047008.9,N
1552021435.4,286047009.8,N
1552021455.2,286047009.3,N
1552021475.1,286047010.4,N
1552021476.0,286047010.4,N
1552021495.8,286047008.5,N
1552021515.7,286047004.8,N
1552021535.5,286047005.6,N
1552021555.3,286047006.0,N
1552021575.2,286047003.8,N
1552021595.0,286046999.7,N
1552021595.9,286046999.7,N
1552021615.7,286047002.5,N
1552021635.6,286047003.9,N
1552021655.4,286047004.8,N
1552021675.3,286047005.1,N
1552021695.1,286047005.3,N
1552021696.0,286047005.3,N
1552021715.8,286047004.9,N
1552021735.7,286047005.2,N
1552021755.5,286047003.8,N
1552021775.3,286047002.2,N
1552021795.2,286047000.7,N
1552021815.0,286046996.6,N
1552021815.9,286046996.6,N
1552021835.8,286046997.6,N
1552021855.6,286046995.4,N
1552021875.4,286046995.1,N
1552021895.3,286046993.8,N
1552021915.1,286046993.3,N
1552021935.9,286046995.0,N
1552021955.7,286046997.8,N
1552021975.5,286047001.0,N
1552021995.4,286047000.3,N
1552022015.2,286047000.3,N
1552022035.0,286047000.6,N
1552022035.9,286047000.6,N
1552022055.8,286047000.5,N
1552022075.6,286046999.6,N
1552022095.5,286046995.2,N
1552022115.3,286046995.5,N
1552022135.1,286046993.4,N
1552022155.9,286046991.7,N
1552022175.7,286046994.0,N
1552022195.5,286046992.5,N
1552022215.4,286046993.6,N
1552022235.2,286046995.7,N
1552022255.1,286046995.4,N
1552022256.0,286046995.4,N
1552022275.8,286046996.8,N
1552022295.6,286046998.7,N
1552022315.5,286046998.6,N
1552022335.3,286046999.1,N
1552022355.1,286046996.9,N
1552022375.9,286047000.2,N
1552022395.7,286047002.3,N
1552022415.6,286047001.2,N
1552022435.4,286046996.9,N
1552022455.2,286046996.6,N
1552022475.1,286047001.1,N
1552022476.0,286047001.1,N
1552022495.8,286046999.8,N
1552022515.7,286047002.3,N
1552022535.5,286047001.6,N
1552022555.3,286047002.5,N
1552022575.2,286047002.4,N
1552022595.0,286047004.4,N
1552022595.9,286047004.4,N
1552022615.7,286047005.0,N
1552022635.6,286047004.9,N
1552022655.4,286047005.2,N
1552022675.3,286047004.2,N
1552022695.1,286047002.4,N
1552022696.0,286047002.4,N
1552022715.8,286046998.6,N
1552022735.7,286046998.5,N
1552022755.5,286046997.7,N
1552022775.3,286046995.6,N
1552022795.2,286046996.2,N
1552022815.0,286046991.7,N
1552022815.9,286046991.7,N
1552022835.8,286046992.4,N
1552022855.6,286046991.9,N
1552022875.4,286046994.5,N
1552022895.3,286046996.2,N
1552022915.1,286046995.3,N
1552022935.9,286046999.6,N
1552022955.7,286047000.6,N
1552022975.5,286047002.7,N
1552022995.4,286047002.1,N
1552023015.2,286047001.3,N
1552023035.0,286047002.9,N
1552023035.9,286047002.9,N
1552023055.8,286047004.7,N
1552023075.6,286047005.2,N
1552023095.5,286047009.1,N
1552023115.3,286047008.5,N
1552023135.1,286047007.7,N
1552023155.9,286047009.8,N
1552023175.7,286047011.3,N
1552023195.5,286047013.8,N
1552023215.4,286047013.0,N
1552023235.2,286047012.8,N
1552023255.1,286047011.1,N
1552023256.0,286047011.1,N
1552023275.8,286047012.0,N
1552023295.6,286047011.2,N
1552023315.5,286047009.3,N
1552023335.3,286047007.9,N
1552023355.2,286047009.2,N
1552023375.9,286047008.2,N
1552023395.7,286047009.0,N
1552023415.6,286047006.5,N
1552023435.4,286047009.1,N
1552023455.2,286047006.2,N
1552023475.1,286047008.7,N
1552023476.0,286047008.7,N
1552023495.8,286047008.8,N
1552023515.7,286047008.4,N
1552023535.5,286047009.2,N
1552023555.3,286047007.3,N
1552023575.2,286047008.2,Y
1552023595.0,286046998.8,P
1552023595.9,286046998.8,N
1552023615.8,286047001.0,N
1552023635.6,286047001.4,N
1552023655.4,286047002.0,N
1552023675.3,286047003.8,N
1552023695.1,286047001.3,N
1552023715.8,286047001.9,N
1552023735.7,286047000.3,N
1552023755.5,286046998.4,N
1552023775.4,286046999.1,N
1552023795.2,286046999.4,N
1552023815.0,286046998.1,N
1552023815.9,286046998.1,N
1552023835.8,286046998.1,N
1552023855.6,286047000.5,N
1552023875.4,286047002.6,N
1552023895.3,286047002.1,N
1552023915.1,286047002.1,N
1552023935.9,286047001.0,N
1552023955.7,286046999.6,N
1552023975.5,286046995.4,N
1552023995.4,286046995.9,N
1552024015.2,286046994.0,N
1552024035.1,286046990.1,Y
1552024036.0,286046990.1,P
1552024055.8,286046992.3,N
1552024075.6,286046992.0,N
1552024095.5,286046996.4,N
1552024115.3,286046995.5,N
1552024135.1,286046996.6,N
1552024155.9,286046999.4,N
1552024175.7,286046998.3,N
1552024195.6,286046999.4,N
1552024215.4,286046998.9,N
1552024235.2,286047000.8,N
1552024255.1,286047000.1,N
1552024256.0,286047000.1,N
1552024275.8,286047002.2,N
1552024295.6,286047004.2,N
1552024315.5,286047001.7,N
1552024335.3,286047003.9,N
1552024355.2,286047003.5,N
1552024375.9,286047005.6,N
1552024395.7,286047007.3,N
1552024415.6,286047006.6,N
1552024435.4,286047009.2,N
1552024455.2,286047010.8,N
1552024475.1,286047012.0,N
1552024476.0,286047012.0,N
1552024495.8,286047009.6,N
1552024515.7,286047010.1,N
1552024535.5,286047009.7,N
1552024555.3,286047009.5,N
1552024575.2,286047012.4,N
1552024595.0,286047014.0,N
1552024595.9,286047014.0,N
1552024615.8,286047012.5,N
1552024635.6,286047012.8,N
1552024655.4,286047013.3,N
1552024675.3,286047013.9,N
1552024695.1,286047011.0,N
1552024715.8,286047013.6,N
1552024735.7,286047014.8,N
1552024755.5,286047015.4,Y
1552024775.4,286047008.1,P
1552024795.2,286047008.6,P
